#timestamp,LO_Frequency,Hit,StdDev 
1505311215.5,286047002.7,N,1.2
1505311235.4,286046999.9,N,1.1
1505311255.2,286047000.7,N,1.1
1505311275.1,286047002.8,N,1.2
1505311276.0,286047002.8,N,1.3
1505311295.8,286047000.3,N,1.2
1505311315.6,286047000.9,N,1.2
1505311335.5,286047000.8,N,1.1
1505311355.3,286047000.9,N,1.1
1505311375.2,286047000.2,N,1.1
1505311395.9,286046998.6,N,1.2
1505311415.7,286046998.1,N,1.3
1505311435.6,286047000.5,N,1.3
1505311455.4,286047000.3,N,1.2
1505311475.2,286047001.1,N,1.2
1505311495.1,286047000.7,N,1.2
1505311496.0,286047000.7,N,1.2
1505311515.8,286047000.7,N,1.1
1505311535.7,286047000.8,N,1.1
1505311555.5,286047000.4,N,1.1
1505311575.3,286047000.3,N,1.1
1505311595.2,286047002.4,N,1.1
1505311615.0,286047002.6,N,1.2
1505311615.9,286047002.6,N,1.2
1505311635.8,286047000.1,N,1.2
1505311655.6,286047000.0,N,1.1
1505311675.4,286682706.0,Y,0.0
1505311695.3,286047000.6,P,0.1
1505311715.1,286047000.6,P,0.1
1505311735.9,286047000.4,P,0.2
1505311755.7,286047000.0,N,0.3
1505311775.5,286047000.4,N,0.3
1505311795.4,286047000.9,Y,0.0
1505311815.2,286047000.7,P,0.1
1505311835.1,286046998.6,P,0.9
1505311836.0,286046998.6,N,1.0
1505311855.8,286047000.6,N,1.0
1505311875.6,286046998.1,N,1.1
1505311895.5,286047001.0,N,1.1
1505311915.3,286046999.0,N,1.1
1505311935.1,286046999.0,N,1.0
1505311955.9,286046998.7,N,1.0
1505311975.7,286046998.9,N,1.0
1505311995.6,286047001.1,N,1.1
1505312015.4,286047000.6,N,1.1
1505312035.2,286047002.7,N,1.3
1505312055.1,286047000.9,N,1.3
1505312056.0,286047000.9,N,1.2
1505312075.8,286047000.8,N,1.2
1505312095.7,286046998.5,N,1.2
1505312115.5,286047000.8,N,1.2
1505312135.3,286047001.1,N,1.2
1505312155.2,286046998.5,N,1.2
1505312175.0,286046999.0,N,1.2
1505312175.9,286046999.0,N,1.2
1505312195.7,286046998.2,N,1.2
1505312215.6,286046998.1,N,1.3
1505312235.4,286047001.1,N,1.3
1505312255.3,286047000.7,N,1.2
1505312275.1,286046998.3,N,1.3
1505312295.8,286047001.2,N,1.3
1505312315.7,286046999.0,N,1.2
1505312335.5,286046998.2,N,1.3
1505312355.4,286047001.0,N,1.3
1505312375.2,286047000.5,N,1.3
1505312395.0,286047001.2,N,1.3
1505312395.9,286047001.2,N,1.3
1505312415.8,286047000.5,N,1.2
1505312435.6,286047001.0,N,1.2
1505312455.4,286046998.4,N,1.3
1505312475.3,286046999.9,N,1.3
1505312495.1,286047000.6,N,1.2
1505312515.9,286047000.8,N,1.2
1505312535.7,286047000.7,N,1.2
1505312555.5,286047000.7,N,1.2
1505312575.4,286047001.0,N,1.1
1505312595.2,286047000.5,N,1.1
1505312615.1,286047000.9,N,1.1
1505312616.0,286047000.9,N,1.1
1505312635.8,286046998.5,N,1.1
1505312655.6,286047001.0,N,1.1
1505312675.5,286047001.2,N,1.1
1505312695.3,286046999.3,N,1.1
1505312715.2,286046999.6,N,1.1
1505312735.9,286046996.6,Y,0.0
1505312755.7,286046997.2,P,1.5
1505312775.6,286046999.6,N,1.3
1505312795.4,286046997.4,N,1.3
1505312815.2,286046997.2,N,1.3
1505312835.1,286046997.0,N,1.3
1505312836.0,286046997.0,N,1.2
1505312855.8,286046997.5,N,1.2
1505312875.7,286046997.7,N,1.1
1505312895.5,286046997.9,N,1.0
1505312915.3,286046995.9,Y,0.0
1505312935.2,286046997.8,P,0.0
1505312955.0,286046997.2,P,0.3
1505312955.9,286046997.2,P,0.3
1505312975.8,286046997.2,Y,0.0
1505312995.6,286046998.7,P,0.6
1505313015.4,286046999.1,N,0.7
1505313035.3,286046996.6,P,1.0
1505313055.1,286046996.7,Y,0.0
1505313075.9,286047000.7,P,1.4
1505313095.7,286047001.0,N,1.4
1505313115.5,286047000.0,N,1.2
1505313135.4,286047000.2,N,1.1
1505313155.2,286046998.8,N,1.1
1505313175.1,286046998.7,N,1.1
1505313176.0,286046998.7,N,1.0
1505313195.8,286046998.8,N,1.0
1505313215.6,286046997.0,Y,0.0
1505313235.5,286046996.5,P,1.5
1505313255.3,286046999.1,N,1.3
1505313275.2,286046996.5,N,1.4
1505313295.9,286046996.8,N,1.3
1505313315.7,286046996.7,N,1.3
1505313335.6,286046997.7,N,1.2
1505313355.4,286046997.8,N,1.1
1505313375.2,286046997.3,N,1.0
1505313395.1,286046997.2,N,1.0
1505313396.0,286046997.2,N,0.9
1505313415.8,286046997.3,N,0.9
1505313435.7,286046999.6,N,1.0
1505313455.5,286046997.0,N,1.0
1505313475.3,286046997.7,N,1.0
1505313495.2,286046997.9,N,1.0
1505313515.0,286046995.1,Y,0.0
1505313515.9,286046995.1,P,1.3
1505313535.8,286046998.4,N,1.4
1505313555.6,286046998.4,N,1.4
1505313575.4,286047001.1,N,1.9
1505313595.3,286047001.2,N,2.1
1505313615.1,286046998.5,N,1.9
1505313635.9,286046999.4,N,1.8
1505313655.7,286046999.3,N,1.7
1505313675.5,286046998.9,N,1.6
1505313695.4,286046998.9,N,1.6
1505313715.2,286046996.9,N,1.6
1505313735.0,286046997.5,N,1.6
1505313735.9,286046997.5,N,1.5
1505313755.8,286046997.3,N,1.5
1505313775.6,286046997.9,N,1.5
1505313795.5,286046995.3,Y,0.0
1505313815.3,286046999.1,P,0.4
1505313835.1,286046998.5,P,0.3
1505313855.9,286046999.3,N,0.4
1505313875.7,286046996.6,Y,0.0
1505313895.6,286046998.2,P,0.3
1505313915.4,286047001.0,P,1.2
1505313935.2,286047000.4,N,1.1
1505313955.1,286046998.6,N,1.1
1505313956.0,286046998.6,N,1.0
1505313975.8,286046998.6,N,1.0
1505313995.7,286046998.5,N,1.0
1505314015.5,286046998.5,N,0.9
1505314035.3,286046998.2,N,0.9
1505314055.2,286047000.7,N,1.0
1505314075.0,286047001.0,N,1.1
1505314075.9,286047001.0,N,1.1
1505314095.7,286047000.9,N,1.2
1505314115.6,286047000.2,N,1.1
1505314135.4,286047000.2,N,1.1
1505314155.3,286047000.5,N,1.1
1505314175.1,286046998.6,N,1.1
1505314195.8,286046998.6,N,1.1
1505314215.7,286046998.1,N,1.1
1505314235.5,286047001.2,N,1.1
1505314255.4,286046998.5,N,1.1
1505314275.2,286046998.8,N,1.1
1505314295.0,286046998.3,N,1.1
1505314295.9,286046998.3,N,1.1
1505314315.8,286046998.9,N,1.1
1505314335.6,286046998.9,N,1.1
1505314355.5,286046999.3,N,1.1
1505314375.3,286046998.3,N,1.1
1505314395.1,286046999.4,N,1.1
1505314415.9,286046999.2,N,1.0
1505314435.7,286046999.1,N,1.0
1505314455.6,286046999.0,N,1.0
1505314475.4,286046998.4,N,1.0
1505314495.2,286046999.4,N,1.0
1505314515.1,286046999.5,N,1.0
1505314516.0,286046999.5,N,1.0
1505314535.8,286046999.2,N,0.9
1505314555.7,286046998.0,N,1.0
1505314575.5,286046996.8,Y,0.0
1505314595.3,286046997.0,P,1.2
1505314615.2,286046999.3,N,1.1
1505314635.0,286046998.4,N,0.9
1505314635.9,286046998.4,N,0.8
1505314655.8,286046999.5,N,0.9
1505314675.6,286046996.6,Y,0.0
1505314695.4,286047000.8,P,1.1
1505314715.3,286046998.1,N,1.2
1505314735.1,286047001.0,N,1.3
1505314755.9,286047000.9,N,1.3
1505314775.7,286046998.3,N,1.3
1505314795.5,286046998.1,N,1.3
